[[{"header":{"parameterUnit":"m.s-1","parameterCategory":1,"la1":30.2991,"la2":30.254,"lo1":-89.0895,"lo2":-89.0444,"dy":0.0017,"dx":0.0017,"nx":28,"ny":28,"refTime":"2023-11-22T03:00:00:Z","depth":0,"parameterNumber":2,"parameterNumberName":"U-component_of_WINDS"},"data":[0,0,0,0,0,0,0,0,0,0,0,0,0,0,0,0,0,0,0,0,0,0,0,0,0,0,0,0,0,0,0,0,0,0,0,0,0,0,0,0,0,0,0,0,0,0,0,0,0,0,0,0,0,0,0,0,0,0,3.3325,3.3325,0,3.3345,3.3346,3.3346,3.33,3.3299,3.3297,3.3296,3.3316,3.3318,3.332,0,0,0,0,0,0,0,0,0,0,0,0,0,3.3246,3.3248,3.3325,3.3325,3.3325,3.3345,3.3346,3.3346,3.3301,3.3299,3.3297,3.3295,3.3316,3.3318,3.332,0,0,0,0,0,0,0,0,0,0,0,0,0,3.3275,3.3248,3.3325,3.3305,3.3303,3.3345,3.3346,3.3346,3.3301,3.3299,3.3297,3.3294,3.3315,3.3318,3.332,3.3382,0,0,3.3329,3.333,0,0,0,0,0,0,0,0,3.3273,3.3278,3.3308,3.3306,3.3305,3.3318,3.3325,3.3358,3.3301,3.3302,3.3296,3.3293,3.3319,3.3321,3.333,3.3383,3.3384,3.3329,3.3331,3.3332,3.3333,0,0,0,0,0,0,0,3.3271,3.3277,3.3333,3.3308,3.3306,3.3295,3.3297,3.3331,3.3322,3.3302,3.3298,3.3302,3.3317,3.3327,3.333,3.3384,3.3329,3.3332,3.3334,3.3335,3.349,3.3493,0,0,0,0,0,0,3.3272,3.3275,3.3332,3.3333,3.3283,3.3298,3.33,3.3316,3.3322,3.332,3.3303,3.3299,3.3323,3.3326,3.333,3.3403,3.3332,3.3335,3.3337,3.3488,3.3491,3.3494,0,0,0,0,0,0,3.327,3.3277,3.3331,3.3303,3.3309,3.3302,3.332,3.3317,3.3327,3.3323,3.3321,3.3315,3.3322,3.3326,3.337,3.3403,3.3336,3.3339,3.3485,3.3489,3.3492,3.355,0,0,0,0,0,0,3.3268,3.3277,3.33,3.3304,3.3311,3.337,3.3322,3.3319,3.3332,3.3327,3.3333,3.3332,3.332,3.3366,3.3373,3.3406,3.3341,3.3482,3.3487,3.3491,3.3545,3.3555,3.3564,0,0,0,0,0,3.3266,3.3315,3.3301,3.3309,3.334,3.3372,3.3376,3.3362,3.3335,3.3358,3.3356,3.3332,3.3399,3.3371,3.3378,3.3413,3.348,3.3485,3.3491,3.3541,3.3553,3.3563,0,0,0,0,0,0,3.3314,3.3315,3.33,3.3352,3.3363,3.3365,3.3393,3.3375,3.3393,3.3387,3.3368,3.337,3.3418,3.342,3.3388,3.3473,3.3435,3.3442,3.347,3.3482,3.3491,3.3489,3.3343,0,0,0,0,0,3.3331,3.3357,3.3357,3.3403,3.3409,3.3401,3.3414,3.3402,3.3412,3.3416,3.3417,3.3427,3.3451,3.3467,3.3488,3.3545,3.3546,3.3573,3.3582,3.359,3.3596,3.3628,3.364,3.3512,3.3511,3.3511,0,0,3.3365,3.3369,3.3387,3.3413,3.3419,3.3447,3.3404,3.3435,3.3456,3.3421,3.3462,3.3464,3.3474,3.3525,3.3548,3.3528,3.3632,3.3597,3.3603,3.3605,3.3635,3.3647,3.3658,3.3515,3.3515,3.3514,0,0,3.3443,3.3448,3.3488,3.3496,3.3507,3.3502,3.3511,3.3517,3.3517,3.3558,3.3532,3.3557,3.3598,3.3606,3.3616,3.37,3.3679,3.3708,3.3756,3.3787,3.3797,3.3806,3.3837,3.3848,3.3714,3.3714,3.3714,0,3.3484,3.3525,3.351,3.3544,3.3556,3.3527,3.3567,3.3576,3.3593,3.3602,3.3581,3.3632,3.3637,3.369,3.3711,3.372,3.3731,3.3706,3.3797,3.3806,3.3814,3.3843,3.3854,3.3718,3.3717,3.3717,3.3717,0,3.3576,3.3606,3.3636,3.3655,3.3671,3.3708,3.3698,3.3717,3.3704,3.3701,3.3745,3.375,3.3772,3.3784,3.3772,3.3837,3.3824,3.38,3.3761,3.383,3.3857,3.3868,3.3723,3.3721,3.372,3.3719,0,0,3.3683,3.3694,3.3706,3.3715,3.3726,3.3748,3.3784,3.3807,3.3823,3.3837,3.3867,3.3903,3.3882,3.3893,3.3882,3.3909,3.3976,3.3882,3.3882,3.3899,3.4049,3.4066,3.4079,3.3963,3.3965,3.3966,3.4048,0,3.376,3.3822,3.381,3.3871,3.3898,3.3872,3.3903,3.3914,3.3913,3.3936,3.3935,3.3961,3.393,3.3937,3.3963,3.3962,3.4006,3.3956,3.399,3.3992,3.3988,3.4093,3.4111,3.4188,3.4058,3.406,3.4061,0,3.3857,3.3876,3.3939,3.3948,3.3959,3.3988,3.4008,3.4031,3.4043,3.404,3.4054,3.4039,3.4075,3.4036,3.4087,3.4053,3.4067,3.4069,3.4072,3.4074,3.403,3.4098,3.4212,3.4224,3.4077,3.4076,3.4075,0,3.3929,3.397,3.4013,3.4022,3.4033,3.4054,3.4059,3.4069,3.4084,3.4103,3.4112,3.4135,3.4147,3.4165,3.4156,3.4128,3.4208,3.4168,3.4207,3.4207,3.4224,3.4223,3.4342,3.4233,3.4233,3.4233,3.4233,0,3.4016,3.4056,3.4046,3.4073,3.4117,3.4104,3.4149,3.4151,3.4161,3.4188,3.4167,3.4193,3.4179,3.4204,3.4198,3.4241,3.4246,3.4245,3.4243,3.4247,3.4247,3.4255,3.4249,3.4236,3.4235,3.4235,3.4234,0,3.4102,3.4098,3.4144,3.4151,3.4154,3.4187,3.4193,3.4218,3.4216,3.4251,3.4259,3.4256,3.4284,3.4278,3.4309,3.4304,3.4359,3.435,3.4355,3.4353,3.4392,3.4388,3.4519,3.4536,3.4417,3.4419,3.442,0,3.4158,3.4188,3.42,3.4217,3.4224,3.4252,3.4267,3.4256,3.4274,3.4291,3.4315,3.4342,3.4363,3.441,3.4411,3.4435,3.4426,3.4471,3.443,3.4433,3.4427,3.4425,3.4429,3.4479,3.448,3.4481,3.4482,0,3.4257,3.4254,3.4277,3.4301,3.432,3.4338,3.4354,3.4369,3.4359,3.438,3.441,3.4426,3.4459,3.4486,3.4509,3.4515,3.4497,3.4495,3.4505,3.4509,3.4511,3.4511,3.4377,3.4492,3.4491,3.449,3.449,3.4489,3.433,3.4356,3.4369,3.4396,3.4407,3.4423,3.4448,3.445,3.4474,3.45,3.4493,3.4527,3.454,3.4569,3.4578,3.4604,3.4587,3.4602,3.4606,3.461,3.4615,3.4508,3.4608,3.4608,3.4608,3.4608,3.4607,0,3.4428,3.4435,3.4461,3.4484,3.4506,3.4489,3.4506,3.4525,3.4556,3.4569,3.4591,3.4626,3.4653,3.4657,3.4683,3.4703,3.4696,3.4711,3.4709,3.4711,3.4628,3.4617,3.4716,3.4716,3.4716,3.4716,3.4716,3.4716,3.4481,3.4525,3.4524,3.4573,3.458,3.4614,3.4626,3.464,3.4651,3.4692,3.4714,3.4717,3.4727,3.4754,3.4778,3.4779,3.4789,3.4807,3.4804,3.4727,3.4716,3.4706,3.4695,3.4809,3.481,3.4885,3.4885,3.4886]},{"header":{"parameterUnit":"m.s-1","parameterCategory":1,"la1":30.2991,"la2":30.254,"lo1":-89.0895,"lo2":-89.0444,"dy":0.0017,"dx":0.0017,"nx":28,"ny":28,"refTime":"2023-11-22T03:00:00:Z","depth":0,"parameterNumber":3,"parameterNumberName":"V-component_of_WINDS"},"data":[0,0,0,0,0,0,0,0,0,0,0,0,0,0,0,0,0,0,0,0,0,0,0,0,0,0,0,0,0,0,0,0,0,0,0,0,0,0,0,0,0,0,0,0,0,0,0,0,0,0,0,0,0,0,0,0,0,0,-6.6802,-6.6804,0,-6.7006,-6.7008,-6.7011,-6.6981,-6.6978,-6.6975,-6.6971,-6.7178,-6.7187,-6.7195,0,0,0,0,0,0,0,0,0,0,0,0,0,-6.6387,-6.6395,-6.6802,-6.6805,-6.6807,-6.7006,-6.7008,-6.7011,-6.6982,-6.6978,-6.6974,-6.697,-6.7175,-6.7186,-6.7196,0,0,0,0,0,0,0,0,0,0,0,0,0,-6.6577,-6.6397,-6.6802,-6.6817,-6.682,-6.7005,-6.7008,-6.7012,-6.6983,-6.6978,-6.6973,-6.6968,-6.7172,-6.7185,-6.7197,-6.738,0,0,-6.7237,-6.7243,0,0,0,0,0,0,0,0,-6.6566,-6.6592,-6.6812,-6.6816,-6.682,-6.6963,-6.6938,-6.7135,-6.6984,-6.6921,-6.6971,-6.6965,-6.7111,-6.7128,-6.7178,-6.739,-6.7398,-6.7238,-6.7246,-6.7252,-6.7256,0,0,0,0,0,0,0,-6.6553,-6.6583,-6.6883,-6.6815,-6.682,-6.6813,-6.6834,-6.6975,-6.7042,-6.6926,-6.6925,-6.6949,-6.7112,-6.7165,-6.7182,-6.7402,-6.7238,-6.725,-6.7258,-6.7263,-6.7775,-6.778,0,0,0,0,0,0,-6.6536,-6.6572,-6.6876,-6.6889,-6.6678,-6.6825,-6.6848,-6.6922,-6.704,-6.7053,-6.6953,-6.6947,-6.7146,-6.7167,-6.719,-6.7412,-6.7252,-6.7264,-6.7271,-6.7769,-6.7776,-6.7782,0,0,0,0,0,0,-6.6527,-6.6563,-6.6868,-6.673,-6.6768,-6.6837,-6.692,-6.6929,-6.6982,-6.7061,-6.7072,-6.6996,-6.7142,-6.7171,-6.7333,-6.7419,-6.727,-6.7282,-6.7762,-6.7771,-6.7779,-6.7858,0,0,0,0,0,0,-6.6515,-6.656,-6.663,-6.6732,-6.6776,-6.7009,-6.6926,-6.6937,-6.7005,-6.6999,-6.7104,-6.7116,-6.7141,-6.7314,-6.7346,-6.7434,-6.7292,-6.7755,-6.7766,-6.7776,-6.7848,-6.7868,-6.7885,0,0,0,0,0,-6.6501,-6.6644,-6.6634,-6.6671,-6.6865,-6.7014,-6.7039,-6.7065,-6.7012,-6.7083,-6.7134,-6.7113,-6.7404,-6.7331,-6.7367,-6.746,-6.7749,-6.7763,-6.7775,-6.7839,-6.7864,-6.7885,0,0,0,0,0,0,-6.655,-6.6657,-6.6648,-6.6828,-6.6912,-6.7009,-6.7099,-6.709,-6.719,-6.718,-6.7207,-6.7231,-6.7395,-6.7443,-6.736,-6.7643,-6.7569,-6.759,-6.7606,-6.763,-6.7648,-6.7633,-6.7303,0,0,0,0,0,-6.6581,-6.6693,-6.6781,-6.6932,-6.6975,-6.703,-6.7095,-6.7108,-6.7196,-6.7231,-6.7293,-6.7379,-6.749,-6.7562,-6.7669,-6.7854,-6.7877,-6.7936,-6.7955,-6.797,-6.7988,-6.8091,-6.8118,-6.7825,-6.7825,-6.7825,0,0,-6.6648,-6.6721,-6.679,-6.6944,-6.701,-6.7126,-6.706,-6.7184,-6.727,-6.725,-6.7407,-6.7456,-6.7553,-6.7729,-6.7809,-6.7774,-6.8074,-6.7986,-6.7998,-6.8008,-6.8107,-6.8135,-6.8159,-6.7834,-6.7832,-6.7831,0,0,-6.6829,-6.6895,-6.7029,-6.7097,-6.7199,-6.7235,-6.7267,-6.7366,-6.7398,-6.7556,-6.7544,-6.7646,-6.7836,-6.7906,-6.7967,-6.8176,-6.8161,-6.821,-6.8308,-6.8408,-6.8431,-6.8452,-6.8527,-6.8554,-6.8227,-6.8227,-6.8228,0,-6.6899,-6.7073,-6.7098,-6.7225,-6.7294,-6.7281,-6.7417,-6.7482,-6.7613,-6.766,-6.762,-6.7859,-6.7924,-6.8116,-6.8167,-6.8216,-6.8254,-6.8198,-6.8426,-6.8447,-6.8466,-6.8539,-6.8567,-6.8233,-6.8232,-6.8232,-6.8231,0,-6.7155,-6.7276,-6.7371,-6.7499,-6.7578,-6.7709,-6.7754,-6.7831,-6.7837,-6.7877,-6.8039,-6.8116,-6.8239,-6.8285,-6.8292,-6.8479,-6.8454,-6.8419,-6.8346,-6.8499,-6.8568,-6.8596,-6.8241,-6.8239,-6.8237,-6.8236,0,0,-6.7372,-6.7513,-6.7548,-6.7607,-6.7719,-6.7813,-6.7943,-6.8063,-6.8129,-6.822,-6.833,-6.8492,-6.8462,-6.853,-6.8545,-6.8633,-6.8795,-6.8588,-6.859,-6.8624,-6.9006,-6.9032,-6.9064,-6.8785,-6.879,-6.8795,-6.8999,0,-6.7564,-6.7795,-6.7822,-6.8027,-6.814,-6.813,-6.8244,-6.8325,-6.8366,-6.8467,-6.8512,-6.8627,-6.8577,-6.8619,-6.8706,-6.8757,-6.8872,-6.8742,-6.8888,-6.8893,-6.8865,-6.91,-6.9127,-6.9316,-6.9025,-6.903,-6.9033,0,-6.7819,-6.7919,-6.8136,-6.8234,-6.8282,-6.8384,-6.8497,-6.8594,-6.8686,-6.871,-6.8788,-6.8791,-6.8926,-6.8847,-6.9032,-6.8944,-6.9005,-6.9039,-6.9047,-6.9062,-6.8973,-6.9122,-6.9376,-6.9405,-6.9075,-6.9072,-6.9069,0,-6.7957,-6.8145,-6.83,-6.835,-6.8468,-6.854,-6.8592,-6.8679,-6.875,-6.8849,-6.8896,-6.9009,-6.9071,-6.9158,-6.9192,-6.9131,-6.9376,-6.93,-6.94,-6.94,-6.9453,-6.9449,-6.9722,-6.9491,-6.9491,-6.949,-6.9489,0,-6.817,-6.8303,-6.8364,-6.8459,-6.8608,-6.8638,-6.8785,-6.8834,-6.8912,-6.9016,-6.9014,-6.9112,-6.9151,-6.9255,-6.9283,-6.9433,-6.9461,-6.9484,-6.949,-6.9485,-6.9482,-6.9526,-6.9514,-6.9498,-6.9496,-6.9494,-6.9493,0,-6.8349,-6.8395,-6.8563,-6.8661,-6.8689,-6.8795,-6.8879,-6.8971,-6.9011,-6.9143,-6.9176,-6.9239,-6.9362,-6.9405,-6.9553,-6.9572,-6.9747,-6.9741,-6.9716,-6.9718,-6.9816,-6.9807,-7.0127,-7.0171,-6.991,-6.9913,-6.9915,0,-6.8482,-6.8584,-6.8694,-6.8764,-6.882,-6.8933,-6.9006,-6.9039,-6.9115,-6.9228,-6.9307,-6.9429,-6.9529,-6.9726,-6.9785,-6.9899,-6.9896,-7.0,-6.9913,-6.9905,-6.9899,-6.9893,-6.9903,-7.0017,-7.0019,-7.0022,-7.0023,0,-6.8713,-6.8731,-6.8837,-6.8951,-6.9039,-6.913,-6.9218,-6.9276,-6.9322,-6.9408,-6.9534,-6.9612,-6.9764,-6.9886,-7.0003,-7.0056,-7.0049,-7.005,-7.008,-7.0076,-7.0058,-7.007,-6.9762,-7.0043,-7.0041,-7.004,-7.0039,-7.0038,-6.8874,-6.8965,-6.9057,-6.9175,-6.9245,-6.9328,-6.942,-6.9473,-6.9579,-6.9706,-6.9719,-6.9855,-6.9946,-7.0102,-7.0161,-7.0268,-7.0239,-7.0281,-7.0292,-7.0302,-7.031,-7.0041,-7.0289,-7.0288,-7.0288,-7.0287,-7.0287,0,-6.9106,-6.9165,-6.9273,-6.9398,-6.9491,-6.9476,-6.9573,-6.9652,-6.9772,-6.9857,-6.9956,-7.0102,-7.022,-7.0289,-7.0407,-7.0479,-7.0479,-7.0509,-7.0505,-7.0517,-7.0329,-7.0292,-7.0508,-7.0508,-7.0508,-7.0508,-7.0508,-7.0508,-6.9238,-6.9392,-6.9421,-6.961,-6.9668,-6.9802,-6.9859,-6.9936,-7.0004,-7.0167,-7.0266,-7.031,-7.0389,-7.0513,-7.0621,-7.0638,-7.0682,-7.0716,-7.0731,-7.0553,-7.053,-7.0509,-7.0474,-7.0725,-7.0726,-7.0911,-7.0912,-7.0914]}]]